Weather History for Sigonella, Italy

Change the Weather History Date:

Monday, October 17, 2011

  Actual Average Record
Temperature  
Mean Temperature 58 °F -  
Max Temperature 68 °F 72 °F 82 °F (2002)
Min Temperature 48 °F 52 °F 48 °F (2011)
Degree Days  
Heating Degree Days 7    
Growing Degree Days 8 (Base 50)    
Moisture  
Dew Point 48 °F    
Average Humidity 71    
Maximum Humidity 100    
Minimum Humidity 27    
Precipitation  
Precipitation 0.00 in 0.08 in - ()
Sea Level Pressure  
Sea Level Pressure 30.13 in    
Wind  
Wind Speed 3 mph ()    
Max Wind Speed 9 mph    
Max Gust Speed -    
Visibility 6.6 miles    
Events      
Averages and records for this station are not official NWS values.
T = Trace of Precipitation, MM = Missing Value Source: Averaged Metar Reports

Daily Weather History Graph

Daily Weather History Graph

Search for Another Location

Airport:

Trip Planner

Search our weather history database for the weather conditions in past years. The results will help you decide how hot, cold, wet, or windy it might be!

Date:

Astronomy

Oct. 17, 2011 Rise Set
Actual Time 7:09 AM CEST 6:21 PM CEST
Civil Twilight 6:43 AM CEST 6:47 PM CEST
Nautical Twilight 6:13 AM CEST 7:17 PM CEST
Astronomical Twilight 5:42 AM CEST 7:48 PM CEST
Moon 9:50 PM CEST (10/17) 11:56 AM CEST (10/17)
Length of Visible Light 12h 04m
Length of Day
11h 11m
Waning Gibbous, 76% of the Moon is Illuminated
Oct 17
Waning Gibbous
Oct 20
Last Quarter
Oct 26
New
Nov 2
First Quarter
Nov 10
Full

Hourly Weather History & Observations

Time (CEST) Temp. Dew Point Humidity Pressure Visibility Wind Dir Wind Speed Gust Speed Precip Events Conditions
12:55 AM 55.4 °F 53.6 °F 94% 30.06 in 6.2 mi Calm Calm - N/A   Mostly Cloudy
1:55 AM 53.6 °F 53.6 °F 100% 30.06 in 6.2 mi SSW 4.6 mph - N/A   Scattered Clouds
2:00 AM 53 °F 53 °F 99% 30.08 in 6 mi SSW 4.6 mph - -   Partly Cloudy
2:55 AM 53.6 °F 53.6 °F 100% 30.06 in 6.2 mi Calm Calm - N/A   Scattered Clouds
3:55 AM 51.8 °F 51.8 °F 100% 30.06 in 6.2 mi Calm Calm - N/A   Partly Cloudy
5:00 AM 48 °F 48 °F 100% 30.08 in 6 mi SSW 2.3 mph - -   Partly Cloudy
6:55 AM 48.2 °F 48.2 °F 100% 30.06 in 6.2 mi South 3.5 mph - N/A   Partly Cloudy
7:55 AM 48.2 °F 48.2 °F 100% 30.09 in 6.2 mi Calm Calm - N/A   Partly Cloudy
8:55 AM 57.2 °F 55.4 °F 94% 30.12 in 6.2 mi West 2.3 mph - N/A   Partly Cloudy
9:55 AM 64.4 °F 51.8 °F 64% 30.15 in 6.2 mi WSW 4.6 mph - N/A   Partly Cloudy
10:55 AM 64.4 °F 46.4 °F 52% 30.15 in 6.2 mi NE 6.9 mph - N/A   Partly Cloudy
11:00 AM 64 °F 47 °F 43% 30.16 in 7 mi NE 6.9 mph - -   Scattered Clouds
11:55 AM 66.2 °F 44.6 °F 46% 30.15 in 6.2 mi ENE 6.9 mph - N/A   Scattered Clouds
12:55 PM 64.4 °F 39.2 °F 40% 30.15 in 6.2 mi East 9.2 mph - N/A   Scattered Clouds
1:55 PM 66.2 °F 39.2 °F 37% 30.12 in 6.2 mi East 6.9 mph - N/A   Scattered Clouds
2:00 PM 65 °F 39 °F 27% 30.14 in 12 mi East 6.9 mph - -   Partly Cloudy
2:55 PM 66.2 °F 39.2 °F 37% 30.12 in 6.2 mi ENE 6.9 mph - N/A   Scattered Clouds
3:55 PM 66.2 °F 39.2 °F 37% 30.12 in 6.2 mi ENE 6.9 mph - N/A   Scattered Clouds
4:55 PM 64.4 °F 39.2 °F 40% 30.12 in 6.2 mi ENE 9.2 mph - N/A   Scattered Clouds
5:55 PM 60.8 °F 41.0 °F 48% 30.12 in 6.2 mi ENE 9.2 mph - N/A   Mostly Cloudy
6:55 PM 57.2 °F 50.0 °F 77% 30.15 in 6.2 mi South 4.6 mph - N/A   Mostly Cloudy
7:55 PM 57.2 °F 50.0 °F 77% 30.18 in 6.2 mi ESE 2.3 mph - N/A   Mostly Cloudy
8:00 PM 58 °F 50 °F 67% 30.19 in 9 mi ESE 2.3 mph - -   Mostly Cloudy
8:55 PM 57.2 °F 51.8 °F 82% 30.15 in 6.2 mi SSE 3.5 mph - N/A   Scattered Clouds
10:55 PM 57.2 °F 53.6 °F 88% 30.18 in 6.2 mi NNW 3.5 mph - N/A   Scattered Clouds
11:00 PM 58 °F 53 °F 78% 30.19 in 9 mi NNW 3.5 mph - -   Scattered Clouds
11:55 PM 57.2 °F 53.6 °F 88% 30.18 in 6.2 mi NW 4.6 mph - N/A   Scattered Clouds